Flag for U.S.A. Weather past 2 weeks in Decatur, Illinois, U.S.A.

Now
73 °F

Sunny.


Feels Like: 77 °F
Forecast: 56 / 79 °F
Wind: 5 mph from Southwest

Location: Decatur Airport

Current Time: May 22, 2015 at 7:22:18 PM

Latest Report: May 22, 2015 at 6:54 PM


Visibility: 10 mi

Pressure: 30.19 "Hg

Humidity: 36%

Dew point: 44 °F

Location of DecaturLocation

Historic Weather in Decatur — Graph

°F

Decatur temperature yesterday

Maximum temperature yesterday: 66 °F (at 4:54 PM)
Minimum temperature yesterday: 44 °F (at 2:54 AM)
Average temperature yesterday: 54 °F

Past Weeks' High & Low Weather Summary

 TemperatureHumidityPressure
High83 °F (May 7, 5:54 PM)97% (May 8, 3:54 AM)30.45 "Hg (May 8, 3:54 AM)
Low42 °F (May 13, 4:54 AM)28% (May 22, 2:54 PM)29.86 "Hg (May 11, 2:54 PM)
Average64 °F72%30.08 "Hg
* Reported May 7 5:54 PM — May 22 5:54 PM, Decatur, Weather by CustomWeather, © 2015

Note: Actual official high and low records may vary slightly from our data, if they occured in-between our weather recording intervals... More about our weather records

Advertising

Decatur weather history for previous 24 hours

 ConditionsComfort  
Time TempWeatherWind HumidityBarometerVisibility
5:54 PM
Fri, May 22
75 °FSunny.5 mph28%30.20 "Hg10 mi
4:54 PM76 °FSunny.8 mph30%30.19 "Hg10 mi
3:54 PM75 °FSunny.6 mph30%30.20 "Hg10 mi
2:54 PM77 °FSunny.5 mph28%30.20 "Hg10 mi
1:54 PM76 °FSunny.6 mph31%30.21 "Hg10 mi
12:54 PM75 °FSunny.5 mph31%30.21 "Hg10 mi
11:54 AM74 °FSunny.N/A35%30.21 "Hg10 mi
10:54 AM72 °FSunny.5 mph46%30.21 "Hg10 mi
9:54 AM67 °FSunny.5 mph53%30.20 "Hg10 mi
8:54 AM63 °FSunny.9 mph58%30.19 "Hg10 mi
7:54 AM58 °FSunny.12 mph67%30.18 "Hg10 mi
6:54 AM55 °FSunny.7 mph72%30.17 "Hg10 mi
5:54 AM52 °FClear.9 mph77%30.15 "Hg10 mi
4:54 AM53 °FClear.10 mph74%30.14 "Hg10 mi
3:54 AM54 °FClear.9 mph72%30.14 "Hg10 mi
2:54 AM55 °FClear.12 mph69%30.13 "Hg10 mi
1:54 AM53 °FClear.10 mph74%30.13 "Hg10 mi
12:54 AM55 °FClear.10 mph67%30.13 "Hg10 mi
11:54 PM
Thu, May 21
53 °FClear.8 mph72%30.13 "Hg10 mi
10:54 PM53 °FClear.8 mph72%30.14 "Hg10 mi
9:54 PM53 °FClear.9 mph64%30.14 "Hg10 mi
8:54 PM57 °FSunny.7 mph53%30.12 "Hg10 mi
7:54 PM62 °FSunny.7 mph39%30.11 "Hg10 mi
Weather by CustomWeather, © 2015

See weather overviewHow to use our weather pages